Terug naar catalogus

CZ-6A DEB

ActiefPO
NORAD 61838·DEBRIS·🇨🇳 China

Gelanceerd Aug 6, 2024 vanaf Taiyuan Satellite Launch Center

Loading…

Volgende Passages (komende 24 uur)

TLE

VersSource: Space-Track

Epoch: Sep 13, 2026, 23:28 UTC

1 61838U 24140ADE 26256.97790947  .00006606  00000-0  10850-2 0  9994
2 61838  88.9436 253.9913 0067995 294.9730  64.4434 14.69004735105907

Volg CZ-6A DEB in realtime met AllMySat

Download on the App Store